Starlink 31618

operational
NORAD ID: 59528 Int'l Des: 2024-073 Owner: SPXS Country: US Constellation: starlink
LEOCIRCULAR

Über Starlink 31618

Beschreibung wird geladen...

Live-Position

3D-Globus wird geladen...

Nächste Überflüge

Höhenverlauf

Altitude vs Time

uPlot chart will show altitude changes over time

Zweizeiliger Elementsatz

1 59528U 24073T 25305.66668981 .00178400 00000-0 94539-3 0 9993
2 59528 42.9859 305.8816 0023445 114.1076 107.6658 15.78854823 5882
Epoch: 1. Nov. 2025 • Age: 25 hours

Aktueller Status

Höhe 319.0 km
Geschwindigkeit 7.73 km/s
Subsatellitenpunkt 37.40°N, 122.03°E
Startdatum 17. Apr. 2024
Alter 1.5 years
Typ internet

Technische Details

Klassifizierung Payload
Masse 730.00 kg
Trockenmasse 700.00 kg
Gesamtmasse 730.00 kg
Länge 0.30 m
Durchmesser 4.10 m
Spannweite 29.00 m
Form Box + pan
Hersteller SPXS
Bus-Typ Starlink V2M
Phasenstatus In Orbit
Besitzer/Staat SPXS/US

Große Konstellationen

Loading constellations...